Weather reports worldwide

Advertisment
Raleigh-Durham NC, United States of America (72306): temperature & dewpoint: 30.05.2020 14:00:00 - 05.06.2020 14:00:00 (EDT)Raleigh-Durham NC, United States of America (72306): wind speed: 30.05.2020 14:00:00 - 05.06.2020 14:00:00 (EDT)Raleigh-Durham NC, United States of America (72306): wind direction: 30.05.2020 14:00:00 - 05.06.2020 14:00:00 (EDT)Raleigh-Durham NC, United States of America (72306): reduced air pressure: 30.05.2020 14:00:00 - 05.06.2020 14:00:00 (EDT)Raleigh-Durham NC, United States of America (72306): visibility: 30.05.2020 14:00:00 - 05.06.2020 14:00:00 (EDT)Raleigh-Durham NC, United States of America (72306): precipitation: 30.05.2020 14:00:00 - 05.06.2020 14:00:00 (EDT)
Date & Time tt [°C] td [°C] ff [km/h] ff [kn] dd ppp [hPa] vv [km] rr [mm]
05.06.2020 14:00:00 28,9 22,2 22 12 SW 1013,6 16 -
05.06.2020 13:00:00 26,7 21,7 13 7 SSW 1014,6 16 -
05.06.2020 12:00:00 26,1 22,2 15 8 SSW 1014,9 16 0,0
05.06.2020 11:00:00 25,6 21,7 13 7 S 1015,0 16 -
05.06.2020 10:00:00 24,4 21,7 15 8 SSW 1014,8 16 0,0
05.06.2020 09:00:00 23,3 21,7 11 6 SSW 1015,0 13 0,0
05.06.2020 08:00:00 22,2 21,1 9 5 SSW 1014,9 11 0,0
05.06.2020 07:00:00 22,2 20,0 8 4 S 1014,9 16 -
05.06.2020 06:00:00 22,2 19,4 9 5 S 1014,6 16 -
05.06.2020 05:00:00 22,2 18,3 0 0 N 1014,6 16 -
05.06.2020 04:00:00 22,2 18,3 8 4 S 1014,4 16 -
05.06.2020 03:00:00 22,2 18,3 9 5 SSW 1014,6 16 -
05.06.2020 02:00:00 22,2 18,3 9 5 SW 1014,9 16 0,0
05.06.2020 01:00:00 22,8 18,3 13 7 SW 1014,9 16 -
05.06.2020 00:00:00 24,4 18,3 15 8 SW 1014,8 16 -
04.06.2020 23:00:00 25,6 18,3 21 11 SW 1014,3 16 -
04.06.2020 22:00:00 26,1 18,3 18 10 SW 1013,7 16 -
04.06.2020 21:00:00 27,2 18,3 22 12 SW 1013,3 16 -
04.06.2020 20:00:00 28,3 19,4 22 12 SSW 1012,8 16 0,0
04.06.2020 19:00:00 30,0 17,8 22 12 SSW 1012,5 16 -
04.06.2020 18:00:00 31,7 18,9 21 11 SSW 1011,9 16 -
04.06.2020 17:00:00 32,2 20,6 24 13 S 1011,8 16 -
04.06.2020 16:00:00 32,2 21,7 18 10 SSW 1012,4 16 -
04.06.2020 15:00:00 32,2 21,7 21 11 S 1012,8 16 -
04.06.2020 14:00:00 32,2 23,3 22 12 SW 1013,2 16 0,0
04.06.2020 13:00:00 31,1 23,3 16 9 SSW 1013,5 16 -
04.06.2020 12:00:00 30,0 22,8 11 6 SSW 1014,1 16 -
04.06.2020 11:00:00 28,3 22,2 8 4 - 1014,1 16 -
04.06.2020 10:00:00 27,2 21,7 9 5 WSW 1013,8 16 -
04.06.2020 09:00:00 25,6 21,1 11 6 SW 1014,1 16 -
04.06.2020 08:00:00 23,9 20,6 18 10 SW 1013,8 16 0,0
04.06.2020 07:00:00 22,8 20,0 16 9 SW 1013,2 16 -
04.06.2020 06:00:00 22,2 20,0 13 7 SW 1012,5 16 -
04.06.2020 05:00:00 22,8 20,0 13 7 SW 1012,1 16 -
04.06.2020 04:00:00 22,8 20,0 11 6 SW 1011,9 16 -
04.06.2020 03:00:00 23,3 20,0 13 7 WSW 1011,8 16 -
04.06.2020 02:00:00 24,4 20,0 15 8 WSW 1012,4 16 0,0
04.06.2020 01:00:00 25,0 20,6 16 9 WSW 1012,5 16 -
04.06.2020 00:00:00 25,6 20,6 16 9 SW 1012,3 16 -
03.06.2020 23:00:00 26,1 20,6 15 8 SW 1012,1 16 -
03.06.2020 22:00:00 27,2 20,0 15 8 WSW 1011,8 16 -
03.06.2020 21:00:00 27,8 20,6 16 9 WSW 1011,2 16 -
03.06.2020 20:00:00 29,4 20,6 18 10 WSW 1010,8 16 0,0
03.06.2020 19:00:00 30,6 20,0 21 11 WSW 1010,3 16 -
03.06.2020 18:00:00 31,7 20,0 28 15 WSW 1010,3 16 -
03.06.2020 17:00:00 32,2 20,6 29 16 SW 1010,4 16 -
03.06.2020 16:00:00 32,2 20,6 24 13 WSW 1010,7 16 -
03.06.2020 15:00:00 31,7 20,0 18 10 WSW 1011,3 16 -
03.06.2020 14:00:00 31,1 20,0 24 13 WSW 1011,5 16 0,0
03.06.2020 13:00:00 30,6 20,6 24 13 SW 1012,4 16 -
03.06.2020 12:00:00 29,4 20,6 16 9 SW 1013,3 16 -
03.06.2020 11:00:00 27,2 20,0 18 10 SW 1013,9 16 -
03.06.2020 10:00:00 25,6 19,4 21 11 WSW 1014,3 16 -
03.06.2020 09:00:00 23,9 18,3 16 9 WSW 1014,5 16 -
03.06.2020 08:00:00 21,7 17,8 21 11 WSW 1014,7 16 0,0
03.06.2020 07:00:00 20,0 17,2 13 7 SW 1014,9 16 -
03.06.2020 06:00:00 20,0 16,7 13 7 WSW 1015,1 16 -
03.06.2020 05:00:00 19,4 17,2 13 7 SW 1014,6 16 -
03.06.2020 04:00:00 20,0 17,2 13 7 SW 1014,6 16 -
03.06.2020 03:00:00 21,1 17,2 15 8 SW 1014,8 16 -
03.06.2020 02:00:00 21,7 17,2 18 10 SW 1015,0 10 0,0
03.06.2020 01:00:00 22,8 17,2 16 9 SW 1015,7 16 -
03.06.2020 00:00:00 23,9 16,7 21 11 WSW 1015,8 16 -
02.06.2020 23:00:00 23,9 16,7 21 11 SW 1016,0 16 -
02.06.2020 22:00:00 24,4 16,7 18 10 SW 1015,8 16 -
02.06.2020 21:00:00 25,0 17,2 22 12 SW 1015,4 16 -
02.06.2020 20:00:00 26,1 17,2 21 11 SW 1015,3 16 -
02.06.2020 19:00:00 27,8 17,2 26 14 SW 1015,2 16 0,0
02.06.2020 18:00:00 27,8 16,7 29 16 SW 1015,7 16 -
02.06.2020 17:00:00 28,9 17,8 29 16 WSW 1016,4 16 -
02.06.2020 16:00:00 27,8 17,8 22 12 WSW 1017,2 16 -
02.06.2020 15:00:00 28,3 17,8 21 11 WSW 1018,1 16 -
02.06.2020 14:00:00 27,8 17,2 26 14 SW 1018,9 16 0,0
02.06.2020 13:00:00 27,2 17,8 21 11 SW 1019,9 16 -
02.06.2020 12:00:00 25,0 17,2 22 12 SW 1021,0 16 -
02.06.2020 11:00:00 22,8 16,7 18 10 SW 1021,8 16 -
02.06.2020 10:00:00 20,0 15,6 16 9 WSW 1022,0 16 -
02.06.2020 09:00:00 19,4 15,6 16 9 SW 1022,5 16 -
02.06.2020 08:00:00 17,8 15,0 16 9 SW 1022,3 16 0,0
02.06.2020 07:00:00 17,2 14,4 11 6 SW 1022,1 16 -
02.06.2020 06:00:00 16,7 13,9 13 7 SW 1021,8 16 -
02.06.2020 05:00:00 16,7 13,9 15 8 SW 1021,8 16 -
02.06.2020 04:00:00 15,6 12,2 8 4 WSW 1022,1 16 -
02.06.2020 03:00:00 12,8 10,0 0 0 N 1022,5 16 -
02.06.2020 02:00:00 13,9 10,6 0 0 N 1023,0 16 0,0
02.06.2020 01:00:00 13,9 10,6 0 0 N 1023,3 16 -
02.06.2020 00:00:00 13,9 10,0 0 0 N 1023,6 16 -
01.06.2020 23:00:00 15,0 10,6 0 0 N 1023,5 16 -
01.06.2020 22:00:00 17,2 10,6 0 0 N 1023,2 16 -
01.06.2020 21:00:00 17,2 11,1 0 0 N 1022,8 16 -
01.06.2020 20:00:00 20,0 10,0 9 5 WSW 1022,8 16 0,0
01.06.2020 19:00:00 23,3 8,9 8 4 WSW 1022,6 16 -
01.06.2020 18:00:00 23,9 7,2 0 0 N 1022,8 16 -
01.06.2020 17:00:00 24,4 8,3 0 0 N 1023,4 16 -
01.06.2020 16:00:00 23,9 8,3 9 5 W 1023,9 16 -
01.06.2020 15:00:00 24,4 10,0 8 4 SW 1024,5 16 -
01.06.2020 14:00:00 22,8 8,3 9 5 NE 1025,4 16 0,0
01.06.2020 13:00:00 22,2 7,8 8 4 - 1026,0 16 -
01.06.2020 12:00:00 21,1 7,8 16 9 NE 1026,4 16 -
01.06.2020 11:00:00 20,0 7,2 15 8 ENE 1026,4 16 -
01.06.2020 10:00:00 18,9 7,2 15 8 NE 1026,2 16 -
01.06.2020 09:00:00 17,2 6,7 21 11 NE 1025,8 16 -
01.06.2020 08:00:00 15,6 8,9 15 8 NE 1024,9 16 0,0
01.06.2020 07:00:00 14,4 10,0 15 8 NE 1024,4 16 -
01.06.2020 06:00:00 13,9 11,1 13 7 NE 1023,2 16 -
01.06.2020 05:00:00 13,9 13,9 11 6 NNE 1022,3 16 -
01.06.2020 04:00:00 14,4 12,2 0 0 N 1021,7 16 -
01.06.2020 03:00:00 13,9 12,2 0 0 N 1021,6 16 -
01.06.2020 02:00:00 13,9 12,2 0 0 N 1021,5 16 0,0
01.06.2020 01:00:00 13,9 12,2 0 0 N 1021,3 16 -
01.06.2020 00:00:00 16,1 12,8 5 3 E 1020,8 16 -
31.05.2020 23:00:00 15,0 12,8 0 0 N 1020,4 16 -
31.05.2020 22:00:00 16,1 12,8 0 0 N 1020,0 16 -
31.05.2020 21:00:00 19,4 12,8 0 0 N 1019,2 16 -
31.05.2020 20:00:00 22,8 10,6 11 6 E 1018,8 16 0,0
31.05.2020 19:00:00 23,9 10,6 13 7 NE 1018,4 16 -
31.05.2020 18:00:00 23,9 10,6 15 8 ENE 1018,6 16 -
31.05.2020 17:00:00 23,9 10,6 11 6 ENE 1018,8 16 -
31.05.2020 16:00:00 23,9 11,7 11 6 NE 1019,2 16 -
31.05.2020 15:00:00 23,3 10,6 11 6 ENE 1019,7 16 -
31.05.2020 14:00:00 22,2 8,9 15 8 NNE 1020,4 16 0,0
31.05.2020 13:00:00 21,1 8,9 13 7 NNE 1020,6 16 -
31.05.2020 12:00:00 21,7 8,9 21 11 E 1020,8 16 -
31.05.2020 11:00:00 21,1 8,9 21 11 NE 1020,7 16 -
31.05.2020 10:00:00 19,4 9,4 16 9 NNE 1020,6 16 -
31.05.2020 09:00:00 19,4 13,3 21 11 ENE 1019,8 16 -
31.05.2020 08:00:00 19,4 13,3 16 9 ENE 1018,5 16 0,0
31.05.2020 07:00:00 18,9 15,6 18 10 NE 1017,7 16 -
31.05.2020 06:00:00 17,8 13,9 11 6 NNE 1016,3 16 -
31.05.2020 05:00:00 18,3 13,9 8 4 N 1015,8 16 -
31.05.2020 04:00:00 18,9 15,6 8 4 N 1015,0 16 -
31.05.2020 03:00:00 19,4 16,7 8 4 NNW 1014,8 16 -
31.05.2020 02:00:00 19,4 17,8 5 3 NNW 1014,9 16 0,0
31.05.2020 01:00:00 20,6 17,2 0 0 N 1014,9 16 -
31.05.2020 00:00:00 22,2 16,1 5 3 NE 1014,9 16 -
30.05.2020 23:00:00 24,4 17,2 9 5 NNE 1014,6 16 -
30.05.2020 22:00:00 23,9 19,4 0 0 N 1014,1 16 -
30.05.2020 21:00:00 23,3 18,9 0 0 N 1013,4 16 -
30.05.2020 20:00:00 26,1 17,8 8 4 NNE 1013,0 16 0,0
30.05.2020 19:00:00 27,8 17,8 11 6 N 1012,6 16 -
30.05.2020 18:00:00 30,6 18,3 8 4 - 1012,0 16 -
30.05.2020 17:00:00 27,8 19,4 0 0 N 1012,3 16 -
30.05.2020 16:00:00 30,6 20,6 0 0 N 1012,5 16 -
30.05.2020 15:00:00 30,6 20,6 9 5 - 1013,2 16 -
30.05.2020 14:00:00 29,4 19,4 0 0 N 1013,8 16 0,0

tt = temperature
td = dewpoint
ff = wind speed
dd = wind direction
ppp = reduced air pressure
vv = visibility
rr = precipitation

Next stations